Content
SEND FEEDBACK

Daily
Averages
Monthly
Summary
United States of America

HARRISBURG-RALEI, ILLINOIS


Home > North America > United States > Illinois
Elevation: 399 feet     Latitude: 37 48N     Longitude: 088 32W

WEATHER
 
SELECT A DAY
Number of Records: 337,477;   Date Range: 7/17/01 - 12/19/14
 
SHARE

PRINT THIS DATA

[ ← Previous Day ]
WEATHER ALMANAC - JANUARY 31, 2013
[ Next Day → ]
[ °C ]   °F
Weather ElementAverageHighLow
Temperature30.1 °F37.4 °F (1:55 pm)19.4 °F (11:15 pm)
Dewpoint20.5 °F32 °F (4:15 pm)5 °F (11:35 pm)
Humidity68.1 %100 % (4:15 pm)54 % (11:35 pm)
Barometer30.06 in30.32 in (11:35 pm)29.92 in (12:35 am)
Wind Speed15.8 mph24.2 mph (12:35 am)
Wind Gust33.4 mph (12:35 am)
Weather ElementAverage
Visibility9.1 mi
Wind DirectionWNW (276.3 °)

Weather ElementTotal
Precipitation---
Heating Degree Days36.6 (Base 65)
Averaged from 70 records on January 31, 2013
WEATHER CONDITIONS BREAKOUT
WIND DIRECTION BREAKOUT
WEATHER BY HOUR - JANUARY 31, 2013
[ °C ]   °F
Local TimeTemperatureDewpointHumidityBarometerVisibilityWind DirectionWind SpeedGust SpeedPrecipitationEventsConditions
12:35 AM30.2 °F19.4 °F64 %29.92 in10.0 miWest (280°)24.2 mph33.4 mphOvercast
12:55 AM30.2 °F19.4 °F64 %29.93 in10.0 miWest (280°)19.6 mph28.8 mphOvercast
1:15 AM30.2 °F19.4 °F64 %29.94 in10.0 miWest (270°)21.9 mph28.8 mphOvercast
1:35 AM30.2 °F21.2 °F69 %29.94 in10.0 miWest (270°)17.3 mph24.2 mphOvercast
1:55 AM30.2 °F19.4 °F64 %29.94 in10.0 miWest (270°)21.9 mph28.8 mphOvercast
2:15 AM30.2 °F19.4 °F64 %29.94 in10.0 miWest (280°)18.4 mph25.3 mphOvercast
2:35 AM30.2 °F19.4 °F64 %29.94 in10.0 miWest (280°)19.6 mph27.6 mphOvercast
2:55 AM30.2 °F19.4 °F64 %29.94 in10.0 miWNW (290°)17.3 mph26.5 mphOvercast
3:15 AM30.2 °F19.4 °F64 %29.95 in10.0 miWNW (290°)15.0 mph20.7 mphOvercast
3:35 AM30.2 °F21.2 °F69 %29.95 in10.0 miWest (280°)19.6 mph24.2 mphOvercast
3:55 AM30.2 °F19.4 °F64 %29.95 in10.0 miWest (280°)19.6 mph25.3 mphOvercast
4:15 AM30.2 °F19.4 °F64 %29.95 in10.0 miWest (280°)16.1 mphOvercast
4:35 AM30.2 °F21.2 °F69 %29.96 in10.0 miWest (270°)10.4 mphOvercast
4:55 AM30.2 °F19.4 °F64 %29.98 in10.0 miWest (270°)16.1 mph25.3 mphOvercast
5:15 AM30.2 °F19.4 °F64 %29.98 in10.0 miWest (280°)17.3 mphOvercast
5:35 AM30.2 °F19.4 °F64 %29.98 in10.0 miWest (280°)17.3 mph27.6 mphOvercast
5:55 AM30.2 °F19.4 °F64 %29.98 in10.0 miWest (280°)23.0 mph29.9 mphOvercast
6:15 AM30.2 °F19.4 °F64 %29.97 in10.0 miWest (270°)12.7 mph17.3 mphOvercast
6:35 AM30.2 °F19.4 °F64 %29.99 in10.0 miWest (270°)16.1 mphOvercast
6:55 AM30.2 °F19.4 °F64 %30.00 in10.0 miWest (260°)16.1 mph21.9 mphOvercast
7:15 AM30.2 °F19.4 °F64 %30.01 in10.0 miWest (270°)11.5 mphOvercast
7:35 AM30.2 °F21.2 °F69 %30.02 in10.0 miWest (260°)9.2 mphOvercast
7:55 AM30.2 °F19.4 °F64 %30.03 in10.0 miWest (260°)11.5 mphOvercast
8:15 AM30.2 °F19.4 °F64 %30.03 in10.0 miWSW (250°)11.5 mphOvercast
8:35 AM32.0 °F21.2 °F64 %30.04 in10.0 miWSW (250°)11.5 mphOvercast
8:55 AM32.0 °F21.2 °F64 %30.05 in10.0 miWSW (240°)12.7 mph16.1 mphOvercast
9:15 AM32.0 °F21.2 °F64 %30.04 in10.0 miWSW (240°)9.2 mph18.4 mphOvercast
9:35 AM32.0 °F21.2 °F64 %30.06 in10.0 miWSW (240°)15.0 mphOvercast
9:55 AM32.0 °F21.2 °F64 %30.06 in10.0 miWSW (250°)13.8 mph17.3 mphMostly Cloudy
10:15 AM32.0 °F21.2 °F64 %30.07 in10.0 miWSW (250°)13.8 mph19.6 mphOvercast
10:35 AM32.0 °F21.2 °F64 %30.07 in10.0 miWSW (240°)11.5 mphMostly Cloudy
10:55 AM32.0 °F21.2 °F64 %30.07 in10.0 miWSW (240°)16.1 mph21.9 mphMostly Cloudy
11:15 AM32.0 °F21.2 °F64 %30.07 in10.0 miWSW (240°)15.0 mph20.7 mphOvercast
11:35 AM33.8 °F21.2 °F60 %30.06 in10.0 miWest (260°)15.0 mph19.6 mphMostly Cloudy
11:55 AM33.8 °F21.2 °F60 %30.05 in10.0 miWest (260°)12.7 mph20.7 mphScattered Clouds
12:15 PM33.8 °F21.2 °F60 %30.04 in10.0 miWest (260°)17.3 mph23.0 mphMostly Cloudy
12:35 PM35.6 °F21.2 °F56 %30.03 in10.0 miWest (260°)16.1 mphOvercast
12:55 PM35.6 °F23.0 °F60 %30.02 in10.0 miWest (260°)11.5 mph20.7 mphMostly Cloudy
1:15 PM35.6 °F21.2 °F56 %30.02 in10.0 miWSW (250°)15.0 mphMostly Cloudy
1:35 PM35.6 °F23.0 °F60 %30.00 in10.0 miWest (260°)15.0 mph18.4 mphMostly Cloudy
1:55 PM37.4 °F23.0 °F56 %30.00 in10.0 miWest (260°)15.0 mph18.4 mphMostly Cloudy
2:15 PM37.4 °F23.0 °F56 %30.00 in10.0 miWest (270°)11.5 mph16.1 mphMostly Cloudy
2:35 PM37.4 °F23.0 °F56 %30.00 in10.0 miWest (260°)11.5 mphOvercast
2:55 PM37.4 °F23.0 °F56 %30.00 in10.0 miWest (260°)11.5 mph18.4 mphMostly Cloudy
3:15 PM37.4 °F24.8 °F60 %30.01 in10.0 miWest (260°)18.4 mphMostly Cloudy
3:35 PM35.6 °F26.6 °F70 %30.01 in10.0 miWest (270°)16.1 mph24.2 mphMostly Cloudy
3:55 PM35.6 °F28.4 °F75 %30.02 in5.0 miWest (280°)19.6 mph23.0 mphSnowLight Snow
4:15 PM32.0 °F32.0 °F100 %30.04 in0.8 miWest (270°)13.8 mph20.7 mphSnowLight Snow
4:35 PM32.0 °F32.0 °F100 %30.05 in0.5 miWest (270°)9.2 mphSnowSnow
4:55 PM32.0 °F32.0 °F100 %30.05 in0.8 miWest (270°)11.5 mphSnowSnow
5:15 PM32.0 °F32.0 °F100 %30.05 in1.8 miWest (270°)15.0 mphSnowLight Snow
5:35 PM32.0 °F32.0 °F100 %30.05 in2.0 miWest (280°)12.7 mphSnowLight Snow
5:55 PM32.0 °F32.0 °F100 %30.06 in10.0 miWNW (290°)13.8 mph18.4 mphSnowLight Snow
6:15 PM32.0 °F30.2 °F93 %30.08 in10.0 miWNW (290°)17.3 mph27.6 mphSnowLight Snow
6:35 PM28.4 °F26.6 °F93 %30.11 in2.5 miNW (320°)19.6 mph27.6 mphSnowLight Snow
6:55 PM28.4 °F23.0 °F80 %30.13 in5.0 miNW (310°)19.6 mph25.3 mphSnowLight Snow
7:15 PM26.6 °F19.4 °F74 %30.15 in10.0 miNW (310°)17.3 mph29.9 mphMostly Cloudy
7:35 PM26.6 °F19.4 °F74 %30.17 in7.0 miNW (320°)18.4 mph25.3 mphSnowLight Snow
7:55 PM24.8 °F17.6 °F74 %30.18 in10.0 miNW (320°)18.4 mph31.1 mphOvercast
8:15 PM23.0 °F14.0 °F68 %30.19 in10.0 miNW (320°)17.3 mph29.9 mphMostly Cloudy
8:35 PM23.0 °F12.2 °F63 %30.21 in10.0 miNW (310°)15.0 mph23.0 mphScattered Clouds
8:55 PM21.2 °F12.2 °F68 %30.23 in10.0 miNW (320°)12.7 mph17.3 mphClear
9:15 PM21.2 °F10.4 °F63 %30.23 in10.0 miWNW (300°)19.6 mph26.5 mphClear
9:35 PM21.2 °F10.4 °F63 %30.25 in10.0 miNW (310°)15.0 mphClear
9:55 PM21.2 °F10.4 °F63 %30.27 in10.0 miNW (320°)19.6 mph25.3 mphMostly Cloudy
10:15 PM21.2 °F10.4 °F63 %30.27 in10.0 miNW (310°)15.0 mph26.5 mphMostly Cloudy
10:35 PM21.2 °F10.4 °F63 %30.28 in10.0 miWNW (300°)15.0 mph25.3 mphMostly Cloudy
10:55 PM21.2 °F12.2 °F68 %30.29 in10.0 miWNW (290°)18.4 mph25.3 mphOvercast
11:15 PM19.4 °F10.4 °F68 %30.31 in10.0 miWNW (300°)21.9 mph28.8 mphSnowLight Snow
11:35 PM19.4 °F5.0 °F54 %30.32 in10.0 miNW (310°)24.2 mph31.1 mphScattered Clouds
Hourly data recorded from KHSB, located miles away from Harrisburg-Ralei, Illinois







STORIES FROM OUR PARTNERS